Погода в Херсоне

Хотите узнать прогноз погоды в Херсоне? Тогда Вам сюда: Погода в Херсоне

Поиск расширенной информации на нашем сайте:

Полезная информация:

Новости сайта



02.01.2020
Опубликован Долгосрочный прогноз погоды по городам России и ближнего зарубежья на январь 2020 года.
Карты: Прогноз на январь и февраль 2020 года, Сравнение прогнозируемой аномалии приземной температуры воздуха на январь 2020 года по разным моделям.




Погода в Херсоне - сегодня

Время (UTC), дата Ветер
(°,м/с) 
Видим.   Явления Облачность Т
(°С)
Тd
(°С)
f(%) Тe
(°С)
Pmin
(гПа)
dP
(гПа)
Po
(мм)
O2
(г/м3)
Тmin Tmax R s Состояние
почвы
06 05.04.20 030 (СВ) 10 км    5/0 верхняя 
[Ci fib]
+7.2 -3.2 48 +6  1028.5  1.6  767  301  +3.6         
09 05.04.20 030 (СВ) 10 км    3/0 верхняя 
[Ci fib]
+14.1 -4.6 27 +13  1028.8  0.4  767  294           
12 05.04.20 030 (СВ) 10 км    3/0 верхняя 
[Ci fib]
+14.8 -5.4 24 +14  1028  -0.8  767  294           
15 05.04.20 010 (С) 10 км    ясно 
+14.2 -5.3 25 +13  1027.6  -0.4  766  294           
18 05.04.20 360 (С) 10 км    ясно 
+6.6 -8.2 34 +5  1029.5  1.8  768  303    +15.7      мокрая 
21 05.04.20 350 (С) 10 км    ясно 
+4 -9 38 +2  1030.8  1.2  769  306           
00 06.04.20 360 (С) 10 км    ясно 
-1.5 -9 57 -4  1032  1.1  769  313           
03 06.04.20 010 (С) 10 км    ясно 
+1.2 -7.8 51 -1  1033.6  1.6  771  310           
06 06.04.20 050 (СВ) 20000 м    ясно 
+7.6 -4.2 43 +6  1036  2.5  772  303  -1.5         
09 06.04.20 040 (СВ) 20000 м    ясно 
+12.1 -5.6 29 +11  1036.4  0.5  773  299           
12 06.04.20 030 (СВ) 20000 м    ясно 
+13.3 -5.9 26 +13  1035.7  -0.6  772  297           
15 06.04.20 360 (С) 20000 м    ясно 
+14.1 -6.1 24 +14  1034.9  -0.8  772  296           
18 06.04.20 350 (С) 10 км    ясно 
+7.8 -6.5 36 +9  1035.3  0.2  772  303           
21 06.04.20 тихо ()   10 км    ясно 
+4.3 -7 44 +4  1035.2  -0.1  772  307           
00 07.04.20 320 (СЗ) 10 км    ясно 
+3.3 -7.8 44 +3  1034.6  -0.6             
03 07.04.20 330 (СЗ) 10 км    ясно 
-0.7 -9.3 52 -3  1034.6  -0.1  771  313           
06 07.04.20 020 (С) 20000 м    ясно 
+9.5 -2.7 42 +8  1034.9  0.5  772  301  -1.6         
09 07.04.20 040 (СВ) 20000 м    ясно 
+15.5 -1.9 30 +15  1035  0.2  772  295           
12 07.04.20 030 (СВ) 20000 м    ясно 
+16.8 -0.2 31 +17  1033.8  -1.2  771  293           
15 07.04.20 360 (С) 20000 м    ясно 
+16.5 -0.4 32 +16  1032.6  -1.2  770  293           
18 07.04.20 030 (СВ) 10 км    ясно 
+8.8 -1.9 47 +8  1033.3  0.6  770  301    +17.7       
21 07.04.20 110 (В) 10 км    ясно 
+4.4 -1.8 64 +3  1033.8  0.4  771  306           
00 08.04.20 060 (СВ) 10 км    ясно 
+2 -2.1 74 +3  1033.5  -0.4  770  308           
03 08.04.20 050 (СВ) 4000 м  дымка  ясно 
+0.5 -1.6 86 +1  1032.9  -0.6  770  310           
06 08.04.20 100 (В) 20000 м    ясно 
+8 +0.3 58 +9  1032.3  -0.4  770  301  -1.1         
Время (UTC), дата Ветер
(°,м/с) 
Видим.   Явления Облачность Т
(°С)
Тd
(°С)
f(%) Тe
(°С)
Pmin
(гПа)
dP
(гПа)
Po
(мм)
O2
(г/м3)
Тmin Tmax R s Состояние
почвы

Для получения пояснительной информации подведите курсор к названию столбца.

ПОГОДА в Херсоне - архив

Всё, что Вы хотите узнать о погоде в Херсоне - удобно и подробно!

Выберите нужную дату (начиная с 1 января 2019* года) и нажмите кнопку "Найти".
Будут отображены архивные сводки погоды по пункту Херсон, начиная с указанной даты.


Отображать данные в формате CSV (для использования в таблицах Excel)


Внимание! Наш архив погоды предназначен исключительно для личного некоммерческого использования в познавательных целях. Если Вам необходимы официальные справки о состоянии погоды (для производственных, юридических, коммерческих и т.п. целей), обращайтесь в органы Росгидромета.

*Примечание: данная дата относится к архиву по метеостанциям СССР (Россия, СНГ, Балтия).
Архив по метеостанциям Зарубежной Европы и Азии (кроме Китая) хранится 10 дней, по другим регионам земного шара (Китай, Африка, Америка, Австралия, Океания) - 1 день.

Херсон - район местоположения метеостанции


Название, широта, долгота, высота метеостанции:
Херсон 46.6°ш. 32.6°д. 54 м над ур. моря [Украина]

Дополнительная информация

В oтличие oт бoльшинства пoгoдных сайтoв мы публикуем пoдрoбную метеoинфoрмацию в детальнoм прoфессиoнальнoм фoрмате.

Характеристики температуры и влажнoсти вoздуха измеряются на высoте 2 м в тени вдали oт зданий и деревьев.
Скoрoсть ветра измеряется на высoте 10 м (на урoвне рoста челoвека скoрoсть ветра ниже в 1.5-2 раза). Если метеoстанция нахoдится в гoрoде или в лесу, тo скoрoсть ветра занижена на 2-4 м/с пo сравнению с oткрытым местoм. Скoрoсть ветра над акватoриями крупных рек и oзёр, а также на вершинах хoлмoв на 2-5 м/с выше, чем в oбычных услoвиях.
Атмoсфернoе давление в разных тoчках местнoсти мoжет значительнo oтличаться oт давления на метеoстанции, в зависимoсти oт услoвий рельефа (при пoдъёме на 10 м давление пoнижается примернo на 1 мм рт.ст.).